Flag for U.S.A. Weather past 2 weeks in Wright, Florida, U.S.A.

Now
67 °F

Clear.


Feels Like: 67 °F
Forecast: 68 / 86 °F
Wind: 5 mph from North

Location: Hurlburt Field

Current Time: Aug 28, 2015 at 4:34:26 AM

Latest Report: Aug 28, 2015 at 3:58 AM


Visibility: 10 mi

Pressure: 29.91 "Hg

Humidity: 89%

Dew point: 64 °F

Location of WrightLocation

Historic Weather in Wright — Graph

°F

Wright temperature yesterday

Maximum temperature yesterday: 85 °F (at 3:58 PM)
Minimum temperature yesterday: 62 °F (at 5:58 AM)
Average temperature yesterday: 75 °F

Past Weeks' High & Low Weather Summary

 TemperatureHumidityPressure
High94 °F (Aug 23, 12:58 PM)94% (Aug 16, 6:46 AM)30.09 "Hg (Aug 16, 6:46 AM)
Low62 °F (Aug 27, 5:58 AM)30% (Aug 25, 3:58 PM)29.87 "Hg (Aug 24, 6:58 PM)
Average81 °F72%29.98 "Hg
* Reported Aug 13 2:58 AM — Aug 28 2:58 AM, Wright, Weather by CustomWeather, © 2015

Note: Actual official high and low records may vary slightly from our data, if they occured in-between our weather recording intervals... More about our weather records

Advertising

Wright weather history for previous 24 hours

 ConditionsComfort  
Time TempWeatherWind HumidityBarometerVisibility
2:58 AM
Fri, Aug 28
68 °FClear.5 mph90%29.92 "Hg10 mi
1:58 AM69 °FClear.5 mph88%29.93 "Hg10 mi
12:58 AM70 °FClear.3 mph87%29.94 "Hg10 mi
11:58 PM
Thu, Aug 27
74 °FPassing clouds.5 mph71%29.95 "Hg10 mi
10:58 PM71 °FClear.6 mph84%29.96 "Hg10 mi
9:58 PM74 °FClear.No wind74%29.96 "Hg10 mi
8:58 PM79 °FClear.No wind57%29.95 "Hg10 mi
7:58 PM80 °FClear.No wind55%29.93 "Hg10 mi
6:58 PM82 °FSunny.2 mph51%29.93 "Hg10 mi
5:58 PM83 °FSunny.6 mph47%29.91 "Hg10 mi
4:58 PM85 °FSunny.8 mph48%29.93 "Hg10 mi
3:58 PM85 °FSunny.8 mph45%29.91 "Hg10 mi
2:58 PM85 °FSunny.10 mph47%29.92 "Hg10 mi
1:58 PM85 °FSunny.9 mph48%29.93 "Hg10 mi
12:58 PM84 °FSunny.10 mph46%29.94 "Hg10 mi
11:58 AM84 °FSunny.8 mph47%29.96 "Hg10 mi
10:58 AM83 °FSunny.6 mph47%29.96 "Hg10 mi
9:58 AM79 °FSunny.2 mph58%29.96 "Hg10 mi
8:58 AM74 °FSunny.7 mph64%29.96 "Hg10 mi
7:58 AM67 °FSunny.8 mph77%29.94 "Hg10 mi
6:58 AM63 °FSunny.9 mph84%29.96 "Hg10 mi
5:58 AM62 °FClear.9 mph86%29.94 "Hg10 mi
4:58 AM62 °FClear.8 mph84%29.92 "Hg10 mi
Weather by CustomWeather, © 2015

See weather overviewHow to use our weather pages